DIANT EDFH-EDFH

Flight info

Callsign DIANT
Flight time 0h 8m
Altitude
Route
Aircraft DA42

Departure

Time 2026-04-30 19:57
Airport Frankfurt-Hahn Airport (EDFH)

Arrival

Time 2026-04-30 20:05
Airport Frankfurt-Hahn Airport (EDFH)
Time Latitude Longitude Altitude Speed Heading
2026-04-30 19:53 49.94354 7.26499 1649 ft 0 kts 123°
2026-04-30 19:55 49.94401 7.26482 1649 ft 5 kts
2026-04-30 19:55 49.94443 7.26451 1648 ft 11 kts 298°
2026-04-30 19:55 49.94503 7.26302 1649 ft 2 kts 301°
2026-04-30 19:55 49.94550 7.26190 1649 ft 20 kts 301°
2026-04-30 19:56 49.94451 7.25979 1653 ft 52 kts 213°
2026-04-30 19:56 49.94012 7.25567 1713 ft 88 kts 200°
2026-04-30 19:56 49.93605 7.26137 1985 ft 107 kts 86°
2026-04-30 19:56 49.93986 7.27193 2194 ft 121 kts 49°
2026-04-30 19:57 49.94574 7.28210 2357 ft 132 kts 41°
2026-04-30 19:57 49.95243 7.29239 2474 ft 138 kts 39°
2026-04-30 19:57 49.96011 7.29677 2463 ft 111 kts 331°
2026-04-30 19:57 49.96317 7.28669 2219 ft 120 kts 269°
2026-04-30 19:58 49.95996 7.27530 1776 ft 118 kts 221°
2026-04-30 19:58 49.95380 7.26898 1638 ft 89 kts 216°
2026-04-30 19:58 49.94875 7.26398 1707 ft 97 kts 214°
2026-04-30 19:58 49.94280 7.25829 2011 ft 98 kts 214°
2026-04-30 19:59 49.93805 7.26397 2183 ft 125 kts 75°
2026-04-30 19:59 49.95766 7.29520 2636 ft 140 kts 40°
2026-04-30 20:00 49.96507 7.30250 2587 ft 112 kts
2026-04-30 20:00 49.96943 7.29569 2284 ft 99 kts 268°
2026-04-30 20:00 49.96734 7.28510 2026 ft 108 kts 242°
2026-04-30 20:00 49.96213 7.27717 1759 ft 103 kts 230°
2026-04-30 20:01 49.95204 7.26721 1650 ft 91 kts 214°
2026-04-30 20:01 49.94586 7.26113 1691 ft 117 kts 215°
2026-04-30 20:01 49.93970 7.26112 1985 ft 128 kts 145°
2026-04-30 20:02 49.94485 7.28269 2420 ft 140 kts 37°
2026-04-30 20:02 49.95171 7.29288 2508 ft 131 kts 43°
2026-04-30 20:03 49.96401 7.29064 2366 ft 104 kts 296°
2026-04-30 20:03 49.96375 7.28035 2056 ft 98 kts 240°
2026-04-30 20:03 49.95869 7.27374 1655 ft 90 kts 225°
2026-04-30 20:03 49.95407 7.26920 1634 ft 78 kts 212°
2026-04-30 20:04 49.94867 7.26397 1739 ft 102 kts 216°
2026-04-30 20:04 49.94212 7.25742 1831 ft 120 kts 215°
2026-04-30 20:04 49.93524 7.25071 2163 ft 112 kts 215°
2026-04-30 20:05 49.92857 7.24954 1801 ft 97 kts 358°
2026-04-30 20:05 49.93466 7.25007 1671 ft 80 kts 27°
2026-04-30 20:05 49.93923 7.25573 1658 ft 17 kts 128°
2026-04-30 20:06 49.93831 7.25799 1658 ft 27 kts 115°
2026-04-30 20:06 49.93935 7.25999 1662 ft 30 kts 36°
2026-04-30 20:06 49.94105 7.26172 1654 ft 31 kts 32°
2026-04-30 20:06 49.94295 7.26366 1651 ft 25 kts 34°
2026-04-30 20:07 49.94335 7.26480 1650 ft 0 kts 122°